Location: Unspecified
(0.0000°N, 0.0000°E)
Time: 20:38:56
(UTC+00:00)

LightSail 2 - Pass Details

Date: 19 January 2020
Orbit: 687 x 721 km, 24.0° (Epoch: 29 September)

Event Time Altitude Azimuth Distance (km) Brightness Sun altitude
Exits shadow 03:41:30 22° 159° (SSE) 1,519 7.2 -34.5°
Drops below altitude 10° 03:43:45 10° 141° (SE) 2,181 8.3 -34.0°
Sets 03:46:22 0° 131° (SE) 3,089 9.4 -33.4°
